Flag for Germany Weather past 2 weeks in Waltrop, North Rhine-Westphalia, Germany

Now
41 °F

Passing clouds.


Feels Like: 37 °F
Forecast: 46 / 51 °F
Wind: 6 mph from West

Location: Duesseldorf

Current Time: Dec 21, 2014 at 3:16:09 AM

Latest Report: Dec 21, 2014 at 2:00 AM


Visibility: 16 mi

Pressure: 30.37 "Hg

Humidity: 86%

Dew point: 37 °F

Location of WaltropLocation

Historic Weather in Waltrop — Graph

°F

Waltrop temperature yesterday

Maximum temperature yesterday: 46 °F (at 5:00 PM)
Minimum temperature yesterday: 39 °F (at 7:00 AM)
Average temperature yesterday: 43 °F

Past Weeks' High & Low Weather Summary

 TemperatureHumidityPressure
High55 °F (Dec 18, 7:00 PM)100% (Dec 14, 6:00 AM)30.39 "Hg (Dec 14, 6:00 AM)
Low30 °F (Dec 14, 6:00 AM)65% (Dec 7, 3:00 PM)29.41 "Hg (Dec 12, 1:00 PM)
Average42 °F87%29.97 "Hg
* Reported Dec 6 2:00 AM — Dec 21 2:00 AM, Waltrop, Weather by CustomWeather, © 2014

Note: Actual official high and low records may vary slightly from our data, if they occured in-between our weather recording intervals... More about our weather records

Advertising

Waltrop weather history for previous 24 hours

 ConditionsComfort  
Time TempWeatherWind HumidityBarometerVisibility
2:00 AM
Dec 21
41 °FPassing clouds.6 mph86%30.37 "Hg16 mi
1:00 AM41 °FPassing clouds.5 mph86%30.36 "Hg19 mi
12:00 AM42 °FPassing clouds.5 mph83%30.34 "Hg16 mi
11:00 PM
Dec 20
41 °FPassing clouds.5 mph84%30.32 "Hg16 mi
9:00 PM43 °FSprinkles. Overcast.5 mph80%30.27 "Hg12 mi
8:00 PM43 °FPassing clouds.6 mph79%30.23 "Hg31 mi
7:00 PM43 °FPassing clouds.8 mph81%30.19 "Hg31 mi
6:00 PM44 °FSprinkles. Overcast.10 mph82%30.16 "Hg11 mi
5:00 PM46 °FSprinkles. Overcast.12 mph70%30.12 "Hg25 mi
4:00 PM46 °FOvercast.9 mph73%30.11 "Hg25 mi
3:00 PM44 °FLight rain. Overcast.8 mph81%30.09 "Hg14 mi
2:00 PM44 °FLight rain. Overcast.9 mph81%30.10 "Hg15 mi
1:00 PM45 °FLight rain. Overcast.10 mph77%30.11 "Hg14 mi
12:00 PM44 °FLight rain. Overcast.9 mph77%30.12 "Hg16 mi
11:00 AM44 °FOvercast.10 mph79%30.14 "Hg19 mi
9:00 AM41 °FOvercast.8 mph83%30.15 "Hg19 mi
8:00 AM41 °FPassing clouds.8 mph83%30.15 "Hg22 mi
7:00 AM39 °FClear.6 mph86%30.16 "Hg25 mi
6:00 AM41 °FClear.7 mph83%30.16 "Hg28 mi
5:00 AM40 °FClear.7 mph83%30.16 "Hg28 mi
3:00 AM41 °FClear.7 mph81%30.16 "Hg25 mi
Weather by CustomWeather, © 2014

See weather overviewHow to use our weather pages